STARLINK-11486, 62467

Orbit data source: Space-Track

STARLINK-11486, 62467 is a payload satellite owned by SpaceX/Seattle (US) in LEO that was launched on Tue, 31 Dec 2024 UTC via an FALCON 9 launch vehicle from the Air Force Eastern Test Range (AFETR). Payload-class satellites include a variety of spacecraft equipped with specific instruments for various scientific and technological missions. These include communications satellites like Starlink; space stations such as the ISS; scientific satellites like the Hubble; Earth observation satellites from companies like Planet Labs, Umbra, and HawkEye 360; GPS; miniature CubeSats for education and research; and military/defense satellites.

Loading next visibility...
Identifier
62467, 2024-254F
Orbit
LEO
Last TLE update
1 day ago
Origin
Manufacturer
SpaceX/Seattle
Mission
Operational Commercial Communications
Bus & Motor
STARLINK V2M, Unknown motor
Mass
730 kg wet, ~700 kg dry
Launch date (UTC)
2024-12-31 (6 months ago)
Launch vehicle
FALCON 9
Launch site
Air Force Eastern Test Range (AFETR)
Object type
Payload
Rocket body
Debris
Shape & HBR
Box + 2 Pan, 29 m
Radar Cross Section
36.964 m², Large (>1 m²)

Expand to show TLE details & history

TLE from 1 day ago
0 STARLINK-11486
1 62467U 24254F   25185.62595608  .00191984  00000-0  14629-2 0  9990
2 62467  42.9992 278.5490 0001119 277.6239  82.4501 15.70880285 30383
Epoch: 2025-07-04T15:01Z
TLE epoch observation values (Epoch: 2025-07-04T15:01:22.605Z)
Latitude
-0.00005°
Longitude
130.32911°
Altitude
356.052 km
Speed
7.697 km/s
True Right ascension
18h 34m 11s
True Declination
0° 00' 00"
Sunlit
Object was in full shadow at epoch
Visualization orbit readout
Latitude
-1.73072°
Longitude
-55.68955°
Altitude
355.136 km
Speed
7.698 km/s
Apparent Right ascension
03h 12m 08s
Apparent Declination
-34° 54' 37"
Sunlit
Object is in daylight
Visualization observer readout
Local Sidereal Time
10:14:46
Azimuth
249.392° W
Elevation
-32.477°
Doppler factor
1
Orbital elements
Apogee altitude
359.115 km
Perigee altitude
357.608 km
Semi-major axis
6,736.499 km
Eccentricity
0.00011
Inclination
42.9992°
RAAN
278.549°
Arg. of periapsis
277.6239°
True anomaly
Unknown
Mean anomaly
82.4501°
Eccentric anomaly
Unknown
Mean motion
3.92547 °/min
Orbital period
91.71 mins
BSTAR
0.0014629
Loading maneuver chart data...
Loading SW <> Apogee altitude chart data...
Loading historical data...
Loading historical data...
Loading historical data...
Loading historical data...
Loading historical data...
Loading historical data...
Loading historical data...

STARLINK-11486 Visibility forecast

Observer location: undefined°, undefined°

Span
Click to sort rows by Start time (UTC) header in descending order
Start Az.
Max El. time (UTC)
Max El. Az.
Max El.
End time (UTC)
End Az.
4 mins2025-07-06 10:00:35.841Z247.07° WSW2025-07-06 10:01:35.841Z238.303° WSW42.218°2025-07-06 10:04:35.841Z72.681° E
4 mins2025-07-06 11:36:35.841Z295.283° NW2025-07-06 11:38:35.841Z25.536° NE32.515°2025-07-06 11:40:35.841Z69.479° E
4 mins2025-07-06 13:12:35.841Z293.826° NW2025-07-06 13:14:35.841Z45.539° ENE42.632°2025-07-06 13:16:35.841Z97.854° ESE
|